TimeMST,TemperatureF,Dew PointF,Humidity,Sea Level PressureIn,VisibilityMPH,Wind Direction,Wind SpeedMPH,Gust SpeedMPH,PrecipitationIn,Events,Conditions,WindDirDegrees,DateUTC
12:54 AM,43.0,10.0,26,30.02,10.0,Calm,Calm,-,N/A,,Clear,0,2012-11-01 07:54:00
1:54 AM,35.6,8.6,33,30.20,10.0,Calm,Calm,-,N/A,,Clear,0,2012-11-01 08:54:00
2:54 AM,35.6,10.4,35,30.19,10.0,Calm,Calm,-,N/A,,Clear,0,2012-11-01 09:54:00
3:54 AM,32.0,10.0,40,30.04,10.0,Calm,Calm,-,N/A,,Clear,0,2012-11-01 10:54:00
4:54 AM,30.9,9.0,40,30.06,10.0,Calm,Calm,-,N/A,,Clear,0,2012-11-01 11:54:00
5:54 AM,28.4,10.4,47,30.19,10.0,Calm,Calm,-,N/A,,Clear,0,2012-11-01 12:54:00
6:54 AM,30.2,8.6,40,30.19,10.0,Calm,Calm,-,N/A,,Clear,0,2012-11-01 13:54:00
7:54 AM,39.0,10.0,30,30.12,10.0,Calm,Calm,-,N/A,,Clear,0,2012-11-01 14:54:00
8:54 AM,48.0,10.9,22,30.09,10.0,Calm,Calm,-,N/A,,Clear,0,2012-11-01 15:54:00
9:54 AM,57.2,12.2,17,30.20,10.0,Calm,Calm,-,N/A,,Clear,0,2012-11-01 16:54:00
10:54 AM,66.2,15.8,14,30.17,10.0,NNW,4.6,-,N/A,,Clear,340,2012-11-01 17:54:00
11:54 AM,72.0,16.0,12,29.95,10.0,Variable,4.6,-,N/A,,Clear,0,2012-11-01 18:54:00
12:54 PM,73.9,12.9,10,29.91,10.0,Variable,5.8,18.4,N/A,,Clear,0,2012-11-01 19:54:00
1:54 PM,73.4,12.2,10,30.08,10.0,WSW,10.4,20.7,N/A,,Clear,240,2012-11-01 20:54:00
2:54 PM,75.0,16.0,11,29.90,10.0,West,13.8,-,N/A,,Clear,260,2012-11-01 21:54:00
3:54 PM,72.0,14.0,11,29.91,10.0,West,17.3,-,N/A,,Clear,270,2012-11-01 22:54:00
4:54 PM,70.0,12.9,11,29.92,10.0,West,16.1,-,N/A,,Clear,270,2012-11-01 23:54:00
5:54 PM,59.0,14.0,17,29.99,10.0,West,5.8,-,N/A,,Clear,270,2012-11-02 00:54:00
6:54 PM,54.0,14.0,21,30.02,10.0,Calm,Calm,-,N/A,,Clear,0,2012-11-02 01:54:00
7:54 PM,50.0,15.1,25,30.01,10.0,South,4.6,-,N/A,,Clear,170,2012-11-02 02:54:00
8:54 PM,48.9,14.0,25,29.99,10.0,South,6.9,-,N/A,,Clear,190,2012-11-02 03:54:00
9:54 PM,46.0,14.0,28,29.97,10.0,SW,4.6,-,N/A,,Clear,230,2012-11-02 04:54:00
10:54 PM,46.0,15.1,29,29.94,10.0,South,5.8,-,N/A,,Clear,170,2012-11-02 05:54:00
11:54 PM,44.1,15.1,31,29.93,10.0,SSE,5.8,-,N/A,,Clear,150,2012-11-02 06:54:00